Lapse_Rate
3.7 2.6 0.6 0.5 6.3 6.5 6.5 6.5 6.5 6.5 6.5 5.2 5.0 5.1 6.3 5.9 6.4 6.5 4.4 3.9 4.2 4.3 5.4 6.3 6.2 6.4 5.7 5.6 5.6 5.5 5.5 5.7 5.9 6.0 5.8 5.8 6.2 5.8 5.9 5.8 5.5 5.6 5.8 6.1 6.6 6.7 6.7 6.0 5.7
3.1 3.4 0.6 0.7 6.5 6.5 6.5 6.5 6.5 6.5 6.0 4.6 4.5 5.5 5.5 6.5 5.8 5.4 4.6 4.1 4.3 5.4 4.9 5.4 6.7 6.6 6.0 5.7 5.6 5.5 5.5 5.7 5.8 6.0 6.1 6.1 6.2 6.4 6.2 5.9 5.9 5.7 6.1 6.0 6.7 6.7 6.2 5.7 5.3
4.0 2.8 2.5 6.5 6.5 6.5 6.5 6.5 6.5 6.2 4.5 5.5 5.3 4.4 5.6 6.1 5.8 5.0 4.9 3.7 4.6 5.8 4.8 6.2 6.6 6.7 6.4 6.1 5.9 5.8 5.7 5.6 5.5 5.8 5.8 6.0 6.1 6.2 6.2 6.1 5.9 5.8 5.7 5.8 5.8 6.1 5.9 5.6 5.4
2.7 1.7 2.2 6.5 6.5 6.5 6.5 6.5 6.2 6.3 5.2 3.9 4.6 6.3 5.6 5.9 6.0 5.6 4.6 4.2 4.5 5.7 5.5 5.6 6.6 6.6 6.9 6.2 5.9 6.0 6.2 6.1 5.8 5.7 5.9 6.5 6.4 6.1 6.0 6.0 5.8 5.6 5.4 5.6 5.8 5.6 5.5 5.1 5.0
0.8 1.6 6.5 6.5 6.5 6.5 6.5 6.1 6.1 6.5 6.0 4.8 4.9 6.3 5.8 6.1 5.6 5.4 4.2 3.5 4.0 5.9 6.2 5.7 5.3 6.1 6.8 6.7 6.6 6.0 6.2 6.0 5.9 5.9 5.9 6.1 6.2 6.1 6.1 5.8 5.6 5.3 5.2 5.4 6.0 5.8 5.6 5.2 4.7
3.0 2.9 6.5 6.5 6.5 6.5 6.4 5.1 5.8 5.9 5.2 5.2 5.1 5.5 5.8 5.6 5.5 3.5 2.9 2.5 2.7 3.6 4.8 5.4 5.6 5.4 5.4 5.3 5.9 6.2 6.3 6.2 6.0 5.9 5.9 6.1 6.1 6.0 5.9 5.6 5.5 5.6 5.6 5.3 5.1 5.8 5.7 5.5 5.2
5.3 6.5 6.5 6.5 6.5 6.5 6.5 5.4 5.9 6.0 5.9 5.9 5.2 6.5 5.8 5.8 4.8 3.3 2.5 1.9 1.9 2.4 3.1 3.9 4.5 5.1 5.4 5.8 5.8 5.4 5.4 5.8 6.1 6.1 6.1 6.1 5.8 5.5 5.6 5.6 5.4 5.3 5.4 5.6 5.5 5.2 5.4 5.4 5.3
1.5 6.2 6.5 6.5 6.5 6.5 6.2 6.0 5.2 5.7 6.2 4.5 5.4 6.2 6.0 5.7 4.3 3.2 3.0 1.6 1.9 1.8 2.0 2.2 3.2 4.0 4.4 5.4 5.9 5.9 6.3 5.4 5.3 5.9 6.2 6.0 6.1 5.4 5.3 5.3 5.1 5.1 5.2 5.3 5.6 5.4 5.5 5.5 5.9
3.5 6.5 6.5 6.5 6.5 6.5 6.0 6.4 5.7 5.0 5.3 4.7 4.8 4.8 5.4 5.1 4.0 3.5 2.5 1.6 2.0 2.1 1.1 1.6 1.2 2.0 2.5 3.8 5.0 4.7 5.2 5.7 5.2 5.0 5.0 4.9 5.2 5.1 5.0 4.9 5.1 5.1 5.0 5.0 5.3 5.5 5.5 5.6 6.0
5.0 6.5 6.5 6.5 6.4 6.5 6.2 6.0 5.5 6.1 5.2 5.6 5.6 4.9 5.1 4.7 3.8 3.5 3.3 1.9 2.3 2.2 1.6 0.5 1.1 1.1 1.7 2.4 2.1 2.2 3.1 3.8 4.5 4.8 4.8 4.7 4.3 4.6 5.0 4.9 5.0 5.1 5.1 5.0 4.9 5.3 5.5 5.6 4.6
6.2 6.5 6.5 6.3 6.0 5.7 6.1 5.9 4.7 6.0 6.5 5.2 5.4 5.4 5.3 4.9 4.4 3.6 2.4 2.8 3.4 3.2 1.5 1.1 0.8 1.6 1.4 1.0 1.0 0.8 0.9 1.2 2.1 3.7 4.5 4.6 4.9 4.7 4.0 4.1 4.1 4.1 4.3 4.1 4.4 4.5 4.7 4.3 3.8
6.4 6.1 6.2 6.2 5.4 5.8 6.3 5.5 5.9 5.6 5.5 4.0 4.8 5.0 5.2 4.9 3.5 2.6 2.1 1.7 1.6 1.6 1.4 0.9 1.1 1.0 1.2 0.9 0.8 0.6 -0.3 0.5 0.5 1.7 2.8 3.4 3.7 3.9 4.1 4.0 4.3 3.6 4.1 3.8 3.9 4.3 4.5 4.1 3.8
6.5 6.4 5.7 5.5 5.0 5.4 5.8 6.1 6.0 4.0 2.7 2.9 3.0 4.0 4.7 3.5 2.9 2.2 2.2 1.6 1.4 1.2 0.9 0.8 0.6 0.5 1.0 0.5 -0.2 -0.1 0.0 0.2 0.9 1.4 2.4 3.0 3.2 4.4 4.4 4.2 4.6 4.2 4.2 4.0 3.8 3.9 3.8 4.1 3.8
5.9 5.5 6.1 5.7 5.9 6.0 6.4 6.2 5.5 4.8 3.9 3.7 3.4 3.8 3.5 2.6 2.5 2.0 1.8 1.2 1.1 1.1 0.9 0.6 1.0 1.0 0.7 0.3 0.1 -0.3 -0.3 0.3 1.1 1.4 2.0 2.7 3.0 3.1 3.4 4.1 4.3 4.2 4.5 4.6 4.3 4.1 3.7 3.9 3.9
5.5 6.5 6.5 6.1 6.2 6.4 5.6 6.5 6.5 3.8 4.8 5.3 5.4 3.7 2.1 1.9 2.0 1.5 1.6 1.4 0.7 0.8 0.6 0.6 1.7 1.7 0.6 0.2 0.3 0.3 0.3 1.2 -0.1 0.7 2.4 3.2 3.6 3.6 3.5 3.6 4.1 4.5 4.6 4.6 3.9 3.8 3.8 4.0 4.4
6.5 6.5 6.5 6.5 6.3 6.2 6.2 6.5 6.4 4.6 4.1 5.1 4.5 4.4 3.0 3.2 2.9 2.3 2.0 1.7 0.8 0.3 0.2 0.7 1.9 1.2 0.7 0.2 0.3 0.5 0.7 1.0 1.9 1.9 1.7 2.7 4.0 4.5 4.1 4.1 4.2 4.6 4.7 4.7 4.9 4.7 4.8 4.9 4.9
6.5 6.5 6.5 6.5 6.4 6.5 6.5 6.5 6.1 4.1 4.6 4.0 3.6 3.3 3.3 3.2 3.4 2.9 2.3 1.8 1.2 1.0 1.2 1.2 1.2 1.4 1.2 1.1 1.1 1.0 1.5 1.0 1.7 2.0 2.5 3.7 4.3 4.9 4.6 4.9 5.0 5.2 4.9 5.1 5.2 5.4 5.5 5.1 4.6
6.5 6.5 6.5 6.5 6.5 6.5 6.5 6.5 6.4 4.2 4.5 3.5 3.1 2.5 3.1 3.4 3.4 3.1 2.6 2.1 1.4 1.0 1.3 1.2 1.4 1.7 2.3 2.3 2.2 1.4 1.3 0.7 1.9 1.9 2.6 4.1 4.5 4.8 4.7 4.5 4.8 5.0 5.6 5.5 5.1 5.1 5.4 5.1 5.2
6.5 6.5 6.5 6.5 6.5 6.5 6.5 6.5 6.5 5.2 4.2 3.8 3.1 2.3 2.8 3.4 3.1 2.9 2.6 1.4 1.4 1.7 1.4 1.2 1.7 2.5 3.1 2.1 2.2 2.2 2.8 2.4 1.9 2.1 3.5 3.6 3.4 3.7 3.7 3.9 4.3 4.3 4.8 5.5 5.4 4.8 5.0 5.6 4.1
6.5 6.5 6.5 6.5 6.5 6.5 6.5 6.5 6.5 6.2 5.9 4.9 3.9 3.0 3.1 3.2 2.8 2.5 2.5 1.8 2.0 1.9 1.5 1.8 2.2 3.0 3.7 3.3 3.2 3.5 3.7 2.7 2.2 3.4 4.3 4.4 3.4 3.4 3.0 2.9 3.1 4.2 5.2 4.7 5.2 4.9 5.3 4.0 4.0
6.5 6.5 6.5 6.5 6.5 6.5 6.5 6.5 6.5 6.5 6.0 5.0 3.9 3.3 3.2 2.7 2.1 1.5 2.5 2.9 2.4 2.1 1.5 2.1 2.4 2.8 3.6 2.6 3.3 3.3 4.1 4.1 3.2 2.7 3.3 3.5 3.1 3.0 2.1 2.1 3.2 3.8 4.7 6.4 5.2 4.8 5.5 5.8 4.5
6.5 6.5 6.5 6.5 6.5 6.5 6.5 6.5 6.5 6.5 6.5 6.4 5.1 3.7 2.7 2.4 1.9 2.1 3.3 3.5 3.0 2.6 2.0 1.7 2.2 2.2 2.7 2.0 2.6 2.9 3.0 3.0 2.8 2.6 3.0 3.3 2.5 2.5 2.2 2.1 2.9 3.2 3.9 5.3 5.9 5.4 5.0 5.3 5.7
6.5 6.5 6.5 6.5 6.5 6.5 6.5 6.5 6.5 6.5 6.5 6.5 5.2 3.1 2.0 1.5 1.4 1.8 2.5 3.2 3.1 2.6 1.9 1.3 1.7 1.9 1.1 1.3 1.3 1.4 1.6 1.7 0.9 1.1 1.9 2.2 2.3 2.8 3.3 2.5 2.1 3.2 3.1 2.7 3.6 4.6 4.6 3.8 5.8
6.5 6.5 6.5 6.5 6.5 6.5 6.5 6.5 6.5 6.5 6.5 6.5 5.7 3.0 2.0 1.6 1.5 1.9 2.6 3.1 2.6 2.2 2.0 1.3 1.3 1.7 1.1 1.2 1.2 0.6 0.5 0.9 0.9 0.9 1.4 1.9 1.9 2.1 2.4 2.5 2.4 2.7 2.7 2.9 2.3 2.4 2.2 2.5 2.2
6.5 6.5 6.5 6.5 6.5 6.5 6.5 6.5 6.5 6.5 6.5 6.4 5.8 2.8 1.5 1.3 1.2 1.3 2.0 2.2 2.1 2.2 1.8 1.8 1.3 1.9 1.4 1.5 1.1 1.2 1.2 0.9 0.8 0.8 0.6 0.6 1.6 1.1 1.1 1.7 2.3 2.2 2.9 2.9 2.3 2.0 2.2 2.3 1.0
6.5 6.5 6.5 6.5 6.5 6.5 6.5 6.5 6.5 6.5 5.3 5.3 4.6 3.6 1.8 1.0 0.6 0.6 1.0 1.3 1.4 1.8 1.6 1.5 1.5 1.8 1.4 1.6 1.7 1.3 1.6 1.3 1.3 1.4 1.7 1.7 1.7 1.9 2.0 3.2 2.7 1.9 2.2 3.3 2.9 2.1 2.1 2.2 1.8
6.5 6.5 6.5 6.5 6.5 6.5 6.5 6.5 6.5 6.5 6.5 5.9 4.7 3.3 1.4 0.4 0.3 0.2 0.6 0.8 0.8 0.9 1.1 1.2 1.6 1.6 1.9 2.4 2.3 2.2 1.7 1.5 1.1 1.1 1.2 1.1 1.5 3.2 2.3 2.5 3.1 3.1 3.4 2.5 3.1 2.6 2.5 2.4 2.1
6.5 6.5 6.5 6.5 6.5 6.5 6.5 6.5 6.5 6.5 6.5 6.5 6.1 3.7 1.3 0.4 0.1 -0.1 0.2 0.5 0.4 0.6 1.0 0.9 1.1 1.6 2.3 2.2 1.8 2.0 1.5 1.4 1.2 0.9 0.5 0.3 0.6 1.2 1.4 1.6 2.0 2.6 3.5 3.8 3.8 3.4 3.5 3.5 1.9
6.5 6.5 6.5 6.5 6.5 6.5 6.5 6.5 6.5 6.5 6.5 6.5 5.8 2.5 0.9 0.2 -0.6 -0.6 -0.2 0.3 0.7 0.4 0.3 0.6 0.8 1.2 1.3 1.2 1.3 1.2 1.2 1.0 0.5 0.3 -0.1 -0.1 0.4 0.6 1.3 1.7 1.6 1.6 1.7 1.8 1.9 2.5 2.7 3.0 3.2
6.5 6.5 6.5 6.5 6.5 6.5 6.5 6.5 6.5 6.5 6.2 5.3 4.2 2.4 1.1 0.2 -0.5 -0.9 -0.3 0.6 0.6 0.1 0.2 0.2 0.5 0.4 0.7 0.6 0.8 1.0 0.9 0.7 0.3 0.1 -0.0 -0.0 0.2 0.5 0.7 1.3 2.2 2.5 2.6 2.5 2.6 2.0 1.1 1.2 1.9
Wind_Speed
4 5 2 4 4 5 1 1 3 3 3 4 3 7 9 4 4 3 4 6 9 8 12 2 4 3 4 2 2 2 2 3 3 3 4 5 4 5 3 4 5 5 5 5 5 4 8 8 7
4 1 4 3 5 4 3 3 3 0 1 6 5 2 6 3 2 2 4 8 12 11 10 3 4 2 2 1 1 2 2 2 3 3 3 4 3 3 4 5 6 6 6 5 6 5 9 8 8
1 3 4 4 3 4 4 3 4 0 4 2 4 6 3 2 1 1 4 8 10 10 13 8 2 3 3 2 1 1 2 3 4 5 6 6 5 5 6 6 7 7 6 7 9 6 10 8 7
2 4 4 4 3 1 4 3 2 1 4 7 3 6 3 1 1 1 5 7 6 9 16 16 7 2 1 2 1 2 3 4 5 6 8 8 7 7 7 8 8 8 8 8 7 11 12 10 10
4 3 4 4 2 2 1 2 1 2 3 5 3 3 3 2 2 3 5 6 7 7 13 14 17 14 7 5 3 5 6 6 6 7 6 6 6 8 9 9 10 10 10 10 9 11 13 13 13
4 3 5 4 3 2 1 3 2 3 3 3 5 4 1 2 3 6 6 6 7 6 12 14 15 16 17 16 13 10 10 9 10 9 9 9 10 10 10 11 12 12 12 12 12 13 15 14 14
5 4 4 5 6 2 1 2 3 3 2 3 1 4 1 1 2 5 6 6 7 10 9 12 14 15 15 15 15 16 15 14 13 13 13 12 12 11 12 12 12 13 14 14 14 13 17 17 16
4 4 4 1 5 3 2 2 2 3 1 5 1 4 3 2 2 5 5 7 6 7 9 11 16 17 16 16 15 17 17 16 15 15 15 16 16 15 15 15 15 15 15 15 16 16 18 21 20
3 5 3 6 6 4 1 3 1 1 1 3 3 4 3 1 5 5 5 7 6 7 7 11 13 16 18 15 15 18 17 17 16 15 16 17 15 16 16 17 19 19 18 17 17 18 18 22 19
5 4 6 1 2 4 2 2 1 2 3 1 2 2 1 2 3 3 5 5 5 6 7 6 10 12 16 14 18 19 16 17 15 14 14 12 14 14 14 15 19 22 21 20 19 19 18 19 13
2 3 4 2 2 2 3 2 3 3 3 4 4 2 1 2 2 6 6 5 4 4 5 8 8 13 12 12 14 14 16 15 15 17 15 13 11 12 10 10 12 13 17 15 14 14 14 11 11
6 4 3 1 4 3 2 2 3 2 3 6 1 2 1 2 6 6 7 6 6 6 6 7 10 9 11 13 11 12 9 12 11 13 16 11 7 6 8 7 10 9 11 10 12 11 13 13 15
5 2 4 4 6 3 0 1 3 6 8 6 5 5 5 6 6 6 6 6 6 8 9 9 8 7 11 9 10 10 9 10 13 14 15 13 7 6 7 7 10 8 10 10 7 8 7 9 10
3 5 3 4 2 2 2 0 4 4 1 3 5 5 4 6 5 5 6 6 7 7 8 8 9 9 13 8 9 8 10 13 12 14 14 15 11 7 5 6 6 7 12 13 11 8 8 8 8
4 4 2 4 3 2 2 3 6 4 2 4 2 6 7 6 7 7 5 6 6 6 7 8 9 11 8 8 10 10 11 12 8 11 16 16 13 9 7 7 7 7 13 14 9 7 5 6 7
5 5 2 2 3 2 3 7 3 3 6 5 5 0 6 4 5 5 5 4 6 6 7 7 9 9 9 8 10 10 12 11 11 13 13 15 15 14 9 7 7 11 9 7 7 7 6 7 8
6 3 1 4 2 3 2 6 4 2 4 6 7 2 7 5 4 3 4 4 5 6 7 9 9 9 10 9 9 8 11 8 9 11 11 13 13 13 7 6 7 11 7 8 8 8 7 7 8
4 3 0 1 5 3 4 13 10 8 6 10 7 6 6 5 1 2 3 4 4 5 6 8 8 10 10 10 10 7 6 4 9 8 8 11 12 14 11 6 7 7 7 9 9 10 8 9 9
5 4 2 1 1 4 5 10 17 9 9 10 8 8 7 5 0 2 3 5 6 7 8 8 9 11 9 8 8 6 8 8 5 7 13 13 15 16 12 8 9 6 6 8 11 9 8 8 4
5 3 2 4 2 3 5 15 17 8 6 6 8 8 7 4 2 2 3 6 6 6 6 7 7 9 7 6 6 3 6 3 3 6 10 15 17 17 12 10 11 12 9 8 9 9 8 4 5
4 4 1 2 7 1 8 8 4 1 2 4 6 5 4 4 3 3 5 4 5 6 6 6 6 7 7 7 5 5 4 3 5 7 6 9 15 15 15 14 12 12 11 10 9 7 9 9 5
2 1 2 1 5 2 4 5 7 1 2 2 5 5 6 4 2 2 3 3 4 4 5 5 5 6 5 6 5 5 4 3 4 5 6 6 12 12 14 14 12 13 10 8 9 7 8 6 7
2 1 1 1 2 3 2 2 8 2 4 7 8 8 7 6 5 5 5 5 5 4 4 5 5 5 5 5 5 4 3 3 3 3 5 5 6 10 15 14 11 12 10 10 8 6 3 3 8
2 2 3 3 3 2 4 3 6 4 5 4 4 8 7 7 6 6 5 4 5 4 3 4 4 3 5 4 4 4 5 5 4 6 5 6 5 5 9 14 10 10 10 11 9 8 6 6 7
2 4 3 5 4 5 1 2 11 6 6 6 9 9 8 6 5 6 6 5 5 5 3 4 3 3 4 4 6 6 5 6 5 5 4 6 7 7 8 8 10 9 9 9 8 10 12 9 9
1 4 4 5 2 5 4 6 6 2 6 3 3 3 5 6 6 7 7 6 6 6 4 3 2 3 4 5 5 4 4 2 3 4 4 4 5 5 8 8 7 9 10 9 8 6 6 8 7
2 1 2 5 2 2 3 8 10 5 5 3 5 4 8 8 8 8 7 7 7 6 6 5 4 2 2 3 3 4 4 5 4 5 4 3 4 6 7 7 8 8 7 8 9 6 6 6 7
1 5 3 3 2 5 5 6 6 5 7 7 9 10 9 8 8 8 7 7 6 6 6 5 5 4 3 3 2 1 2 3 4 5 6 6 5 6 6 6 6 7 8 8 7 6 7 7 6
2 1 2 3 4 4 4 6 7 7 8 10 12 9 9 9 9 8 8 7 7 6 5 6 5 5 4 3 2 1 2 3 4 4 5 5 5 6 6 6 7 7 6 7 7 7 9 8 7
4 7 6 4 5 4 1 8 3 8 6 6 9 8 7 8 9 8 8 7 7 7 7 7 6 6 6 4 3 2 0 2 3 3 5 5 5 5 5 5 5 5 5 5 5 6 7 7 8
Wind_Direction
327 351 77 43 63 66 40 63 297 37 58 350 332 92 123 68 59 144 303 311 327 315 342 24 160 134 136 137 77 137 195 189 202 163 171 184 205 157 181 181 188 191 193 205 223 225 156 153 144
338 78 48 78 88 84 272 287 100 98 195 142 79 77 45 78 36 2 8 328 323 322 347 327 148 153 154 161 110 126 173 211 226 217 204 225 238 203 210 214 219 223 223 232 244 254 175 166 159
313 37 81 94 104 147 167 194 164 76 10 104 98 51 69 46 59 71 299 319 336 349 353 25 163 166 183 185 194 217 215 211 222 224 227 229 234 232 233 235 236 236 250 264 253 220 178 181 179
57 16 36 79 103 61 167 182 232 162 24 34 113 63 48 298 80 249 336 351 4 6 12 9 23 323 246 195 224 266 257 249 231 246 260 235 224 241 246 241 239 245 254 266 234 190 188 189 197
40 54 66 80 92 94 357 353 302 75 61 11 6 135 67 3 340 341 7 4 17 1 11 19 21 9 9 338 300 286 278 270 263 260 264 246 235 244 254 248 243 239 242 253 247 209 205 201 202
49 96 70 144 142 119 351 334 65 48 19 3 61 85 185 309 358 343 6 5 5 6 5 12 17 18 16 3 342 328 311 289 276 267 262 258 255 255 254 254 250 248 246 240 240 232 219 216 213
109 83 141 131 149 160 159 329 73 103 41 30 152 93 201 52 16 348 357 20 23 19 17 12 11 8 9 2 1 358 344 310 286 276 273 266 260 257 258 258 253 248 244 246 243 246 226 218 218
100 90 96 100 178 198 356 77 116 79 193 303 138 152 191 202 15 6 13 14 15 12 19 8 3 357 352 345 344 344 341 341 328 299 283 277 273 267 263 260 255 254 250 245 244 240 229 227 218
101 65 128 167 162 164 325 119 5 341 34 16 24 125 154 88 26 27 11 360 4 7 13 9 5 359 352 343 340 341 336 334 330 328 317 304 273 265 264 261 260 256 252 248 247 241 234 234 230
71 89 182 253 126 145 106 104 350 135 16 39 89 74 59 56 53 53 24 15 9 1 358 9 4 358 357 353 345 338 331 325 319 316 314 305 288 260 254 256 263 262 259 256 249 247 243 238 214
64 133 147 15 91 83 114 110 313 142 222 210 178 202 184 103 10 28 38 41 28 353 2 357 356 356 2 352 343 343 336 325 318 314 310 307 303 296 268 253 254 254 261 257 256 250 239 223 208
92 51 85 116 12 41 91 342 303 220 239 146 79 294 18 4 28 32 61 30 13 8 355 349 351 352 350 344 341 331 332 330 318 312 311 308 302 289 281 270 256 239 246 240 235 236 233 220 213
78 94 59 77 50 65 31 353 282 265 258 264 276 295 293 13 62 63 58 36 15 8 350 348 339 346 346 336 329 327 323 320 313 312 308 299 294 291 288 278 276 257 246 237 234 229 231 226 216
75 84 84 47 32 42 355 288 12 271 301 187 193 222 35 70 92 59 37 20 13 352 347 337 337 343 340 335 327 315 312 309 314 311 306 306 290 288 285 282 276 272 267 256 244 233 222 223 221
108 74 21 24 32 17 29 281 236 246 277 154 167 59 99 92 71 65 37 24 3 341 327 334 335 342 333 326 323 318 309 314 302 298 307 306 301 289 284 285 282 276 273 267 248 244 238 229 229
62 54 74 334 13 21 34 271 270 220 179 200 324 250 139 106 91 69 34 11 353 339 337 325 339 333 335 327 322 317 311 305 302 311 307 299 294 292 288 284 275 276 273 269 259 242 235 238 234
12 146 172 328 27 339 91 277 295 121 175 245 296 241 154 133 82 58 27 357 355 344 336 338 338 336 331 324 313 300 300 296 297 308 312 307 305 300 291 296 293 282 275 279 273 252 234 234 234
180 131 97 266 349 344 283 268 262 264 254 261 261 170 167 161 103 35 8 350 358 351 345 343 341 345 343 345 338 326 314 294 309 319 318 326 333 326 314 298 281 275 284 285 277 263 242 239 237
105 85 70 267 112 341 244 275 279 245 240 253 230 187 184 186 272 354 354 359 5 2 357 346 339 342 349 344 340 334 331 322 330 351 0 10 3 354 343 319 300 275 258 270 281 265 252 246 225
59 89 327 292 316 350 317 290 281 274 239 232 187 178 182 200 259 299 351 18 5 341 342 336 335 329 337 332 344 317 305 319 300 4 4 16 7 356 351 341 324 303 274 259 259 264 260 247 192
42 111 66 237 322 256 327 293 313 354 78 64 106 144 182 213 292 343 357 358 337 339 335 327 313 311 336 345 346 342 3 353 12 7 356 6 6 357 359 344 337 323 298 266 255 243 245 258 218
118 172 92 30 33 275 26 276 296 324 188 179 174 190 208 232 275 281 294 308 303 311 317 313 312 318 344 343 350 11 15 16 1 360 351 0 3 352 6 351 350 337 329 321 264 247 239 230 253
163 164 184 186 84 30 353 54 270 351 239 232 222 226 229 230 233 253 258 257 284 293 305 303 321 340 347 354 357 354 1 16 342 332 9 5 1 5 11 0 359 345 339 348 336 14 357 254 241
102 91 45 40 86 13 249 127 282 225 210 226 207 223 224 225 240 254 260 262 278 293 300 298 354 354 349 360 10 28 32 17 1 3 7 356 321 20 14 2 356 351 350 353 352 4 31 48 72
100 58 343 351 7 227 183 53 246 247 232 216 204 210 219 224 245 250 251 254 266 270 302 313 6 356 358 359 19 24 17 27 14 0 344 352 349 2 355 356 355 349 355 355 4 14 22 29 64
140 122 146 233 274 286 356 244 256 240 304 247 158 173 203 233 240 243 245 248 255 266 272 277 305 330 356 4 9 9 2 3 353 343 339 344 359 348 353 351 353 358 346 350 5 22 32 26 36
147 52 171 102 88 3 262 287 292 253 228 240 234 229 237 236 236 236 239 233 239 246 251 247 256 276 306 352 352 358 4 13 10 9 10 357 360 356 353 349 350 352 350 358 356 16 12 30 37
122 155 56 16 360 291 285 273 239 294 234 220 233 232 238 237 238 235 230 229 230 235 244 247 251 255 281 310 338 345 347 3 11 12 11 10 6 7 355 352 355 355 360 3 2 17 12 15 30
126 198 103 124 164 204 296 261 215 232 222 216 229 224 226 228 230 232 230 226 227 229 235 242 240 240 251 253 265 325 3 16 19 23 7 3 1 4 6 358 354 356 4 7 14 17 12 21 22
180 193 156 141 225 234 203 270 248 246 265 249 253 240 237 227 229 224 224 225 223 223 222 228 234 233 230 228 222 228 280 26 32 10 355 357 1 358 358 358 1 351 356 8 29 21 11 21 23